Flag for Turkmenistan Weather past 2 weeks in Ashgabat, Turkmenistan

Now
66 °F

Mild.


Feels Like: 66 °F
Forecast: 57 / 84 °F
Wind: No wind

Location: Ashgabat


UV Index: 5 (Moderate)

Visibility: N/A


Pressure: 29.92 "Hg

Humidity: 28%

Dew point: 32 °F

Location of AshgabatLocation

Historic Weather in Ashgabat

°F

Ashgabat temperature yesterday

Maximum temperature yesterday: 84 °F (at 4:00 PM)
Minimum temperature yesterday: 55 °F (at 6:00 AM)
Average temperature yesterday: 71 °F

Past Weeks' High & Low Weather Summary

 TemperatureHumidityPressure
High90 °F (Apr 9, 1:00 PM)83% (Apr 10, 1:00 AM)30.57 "Hg (Apr 10, 1:00 AM)
Low43 °F (Apr 7, 5:00 AM)8% (Apr 20, 4:00 PM)29.71 "Hg (Apr 9, 12:30 PM)
Average65 °F41%30.05 "Hg
* Reported Midnight between Apr 5 and Apr 6 — Midnight between Apr 20 and Apr 21, Ashgabat, Weather by CustomWeather, © 2014

Note: Actual official high and low records may vary slightly from our data, if they occured in-between our weather recording intervals... More about our weather records

Advertising

Historic Weather Conditions — Data for Previous 24 hours

 ConditionsComfort  
Time TempWeatherWind HumidityBarometerVisibility
12:00 AM
Apr 21
66 °FMild.No wind28%29.92 "HgN/A
11:00 PM
Apr 20
68 °FClear.1 mph26%29.92 "Hg5 mi
10:00 PM72 °FClear.6 mph22%29.92 "HgN/A
9:00 PM73 °FPassing clouds.6 mph19%29.92 "Hg5 mi
8:00 PM77 °FScattered clouds.6 mph14%29.92 "HgN/A
7:00 PM82 °FPassing clouds.8 mph13%29.92 "HgN/A
6:00 PM84 °FPassing clouds.3 mph10%29.92 "HgN/A
5:00 PM84 °FPassing clouds.6 mph10%29.92 "HgN/A
4:00 PM84 °FPassing clouds.3 mph8%29.95 "HgN/A
3:00 PM82 °FPartly sunny.3 mph9%29.95 "HgN/A
2:00 PM81 °FPartly sunny.6 mph9%29.98 "HgN/A
1:00 PM79 °FPartly sunny.3 mph9%30.01 "HgN/A
12:00 PM79 °FBroken clouds.8 mph11%30.01 "HgN/A
11:00 AM75 °FScattered clouds.8 mph12%30.01 "HgN/A
10:00 AM72 °FScattered clouds.6 mph15%30.01 "HgN/A
9:00 AM66 °FScattered clouds.3 mph17%30.01 "HgN/A
8:00 AM63 °FBroken clouds.3 mph22%30.01 "HgN/A
7:00 AM57 °FPartly cloudy.3 mph29%30.01 "HgN/A
6:00 AM55 °FClear.3 mph33%29.98 "HgN/A
5:00 AM59 °FClear.8 mph25%29.98 "HgN/A
4:00 AM57 °FClear.6 mph29%29.98 "HgN/A
3:00 AM61 °FClear.8 mph27%29.98 "HgN/A
2:00 AM63 °FClear.6 mph34%29.95 "HgN/A
1:00 AM64 °FClear.3 mph37%29.98 "HgN/A
Weather by CustomWeather, © 2014

See weather overview